Location: Jackson Park
(37.2862°N, 79.9123°W)
Time: 01:36:39
(UTC+00:00)

Tiros 1 despin weight - Pass Details

Date: 12 May 2026
Orbit: 554 x 591 km, 48.2° (Epoch: 6 June)

Event Time Altitude Azimuth Distance (km) Brightness Sun altitude
Rises 13:40:00 0° 287° (WNW) 2,737 ? 39.3°
Reaches altitude 10° 13:42:47 10° 306° (NW) 1,838 ? 39.9°
Maximum altitude 13:45:50 19° 352° (N) 1,347 ? 40.5°
Drops below altitude 10° 13:48:52 10° 39° (NE) 1,834 ? 41.1°
Sets 13:51:39 0° 58° (ENE) 2,729 ? 41.6°
